CAPE
0 0 0 0 0 0 0 0 0 0 0 0 0 0 0 0 0 0 0 0 0 8 2 2 2 2 4 4 5 4 4 4 6 3 2 2 4 5 6 4 8 8 14
0 0 0 0 0 0 0 0 0 0 0 0 0 5 0 0 0 0 0 0 0 0 1 1 1 2 4 4 6 5 4 4 3 5 9 5 8 4 6 6 4 8 7
0 0 0 0 0 0 0 0 0 0 0 0 0 5 0 0 0 0 0 0 0 0 0 0 0 1 3 5 5 4 4 7 4 7 5 6 5 4 6 6 6 6 9
0 0 0 0 0 0 0 0 0 0 0 0 0 1 0 0 0 0 0 0 0 0 0 0 0 0 1 3 4 4 4 5 6 5 10 6 6 5 6 6 6 6 4
0 0 0 0 0 0 0 0 0 0 0 0 0 0 0 0 0 0 0 0 0 0 0 0 0 0 0 1 3 4 4 5 4 7 3 7 7 8 7 6 4 4 6
0 0 0 0 0 0 0 0 0 0 0 0 0 0 0 0 0 0 0 0 0 0 0 0 0 0 0 0 2 4 5 5 4 4 5 4 4 6 6 4 5 5 4
0 0 0 0 0 0 0 0 0 0 0 0 0 0 0 0 0 0 0 0 0 0 0 0 0 0 0 0 0 1 4 4 4 4 4 7 7 6 7 6 6 6 5
0 0 0 0 0 0 0 0 0 0 0 0 0 0 0 0 0 0 0 0 0 0 0 0 0 0 0 0 0 0 1 3 2 2 4 3 5 5 7 7 7 4 4
0 0 0 0 0 0 0 0 0 0 0 0 0 0 2 0 0 0 0 0 0 0 0 0 0 0 0 0 0 0 0 0 2 2 1 3 4 6 6 6 6 5 5
0 0 0 0 0 0 0 0 0 0 0 0 0 0 0 0 0 0 0 0 0 0 0 0 0 0 0 0 0 0 0 0 0 0 2 3 3 4 7 5 6 4 6
0 0 0 0 0 0 0 0 0 0 0 0 0 0 0 0 0 0 0 0 0 0 0 0 0 0 0 0 0 0 0 0 0 0 0 1 1 3 4 6 4 4 5
0 0 0 0 0 0 0 0 0 0 0 0 0 0 0 0 0 0 0 0 0 0 0 0 0 0 0 0 0 0 0 1 1 0 0 1 0 1 2 2 2 2 2
0 0 0 0 0 0 0 0 0 0 0 0 0 0 0 0 0 0 0 0 0 0 0 0 0 0 0 0 0 0 0 0 1 1 0 0 0 0 1 1 1 1 2
0 0 0 0 0 0 0 0 0 0 0 0 0 0 0 0 0 0 0 0 0 0 0 0 0 0 0 0 0 0 0 0 1 2 1 0 0 0 1 1 1 2 1
0 0 0 0 0 0 0 0 0 0 0 0 0 0 0 0 0 0 0 0 0 0 0 0 0 0 0 0 0 0 0 0 0 0 1 0 0 0 0 0 1 1 1
0 0 0 0 0 0 0 0 1 1 2 1 2 2 2 1 0 0 0 0 0 0 0 0 0 0 0 0 0 0 0 0 0 0 0 0 0 0 0 0 0 1 1
0 0 0 0 0 0 0 1 1 1 1 1 1 1 1 1 0 0 0 0 0 0 0 0 0 0 0 0 0 0 0 0 0 0 0 1 0 0 0 0 0 0 0
0 0 0 0 0 1 1 1 1 2 3 4 0 0 1 1 0 0 0 0 0 0 0 0 0 0 0 0 0 0 0 0 0 0 0 2 2 0 1 1 1 1 0
0 0 1 0 0 0 1 6 5 7 0 1 0 1 0 1 0 0 0 1 0 0 0 0 0 0 0 0 0 0 0 0 0 0 0 3 3 1 2 1 2 0 1
1 0 2 10 5 2 3 1 3 1 1 1 1 1 1 1 1 2 4 3 3 0 0 0 0 0 0 0 0 0 0 0 0 0 0 0 0 0 3 3 2 2 1
0 0 2 1 0 0 1 0 0 0 0 0 0 0 0 0 1 0 0 2 3 1 0 0 0 0 0 0 0 0 0 0 0 0 0 0 0 0 0 0 0 0 0
0 0 0 0 0 0 1 0 0 0 0 0 0 0 0 0 0 0 1 0 0 0 0 0 0 0 0 0 0 0 0 0 0 0 0 0 0 0 0 0 0 0 2
0 0 1 1 1 1 0 1 2 1 0 0 0 0 0 1 1 0 1 0 0 0 0 0 0 0 0 0 0 0 0 0 0 0 0 0 0 0 0 0 0 0 2
0 0 0 0 0 0 0 0 0 0 0 1 1 1 0 0 1 1 1 1 0 0 0 0 0 0 0 0 0 0 0 0 0 0 0 0 0 0 0 0 0 0 3
0 0 0 0 0 0 0 0 1 1 0 1 0 0 0 0 1 1 0 0 0 0 0 0 0 0 0 0 0 0 0 0 0 0 0 0 0 0 0 0 0 0 2
0 0 0 0 0 0 0 0 2 0 1 0 0 0 0 0 0 0 0 0 0 0 0 1 0 0 0 0 0 0 0 0 0 0 0 0 0 0 0 0 0 0 0
CIN
0 0 0 0 0 0 0 0 0 0 0 0 0 0 0 0 0 0 0 0 0 -1 0 0 0 0 0 0 0 0 0 0 0 -1 -2 0 -1 -1 0 -2 -1 -1 -1
0 0 0 0 0 0 0 0 0 0 0 0 0 -41 0 0 0 0 0 0 0 0 0 -1 0 0 0 0 0 0 0 0 -1 -1 -1 0 -1 -1 -1 -1 -1 -1 0
0 0 0 0 0 0 0 0 0 0 0 0 0 -31 0 0 0 0 0 0 0 0 0 0 0 0 0 0 0 0 0 0 0 -1 0 0 0 0 0 0 -1 -1 0
0 0 0 0 0 0 0 0 0 0 0 0 0 -40 -7 0 0 0 0 0 0 0 0 0 0 0 0 0 0 0 0 -1 0 -1 -1 -1 -1 -1 -1 -1 -1 -1 -1
0 0 0 0 0 0 0 0 0 0 0 0 0 0 0 0 0 0 0 0 0 0 0 0 0 0 0 0 0 0 -1 0 -1 -1 0 -1 -1 -1 0 -1 -1 -1 -1
0 0 0 0 0 0 0 0 0 0 0 0 0 0 0 0 0 0 0 0 0 0 0 0 0 0 0 0 0 0 -1 0 0 -1 0 -1 -1 -1 -1 -1 -1 0 -1
0 0 0 0 0 0 0 0 0 0 0 0 0 0 0 0 0 0 0 0 0 0 0 0 0 0 0 0 -1 0 0 0 0 -1 0 0 -1 -1 0 -1 -1 -1 -1
0 0 0 0 0 0 0 0 0 0 0 0 0 0 0 0 0 0 0 0 0 0 0 0 0 0 0 0 0 0 0 0 0 0 -1 0 -1 0 -1 -1 0 0 -1
0 0 0 0 0 0 0 0 0 0 0 0 0 0 -12 -10 0 0 0 0 0 0 0 0 0 0 0 0 0 0 0 0 0 0 0 0 0 -1 -1 -1 -1 -1 -1
0 0 0 0 0 0 0 0 0 0 0 0 0 -3 0 0 0 0 0 0 0 0 0 0 0 0 0 0 0 0 0 0 0 0 0 0 0 0 0 0 0 0 -1
0 0 0 0 0 0 0 0 0 0 0 0 0 0 0 0 0 0 0 0 0 0 0 0 0 0 0 0 0 0 0 0 0 0 0 0 0 0 0 0 0 -1 -1
0 0 0 0 0 0 0 0 0 0 0 0 0 0 0 0 0 0 0 0 0 0 0 0 0 0 0 0 0 0 0 0 0 0 0 0 0 0 0 0 -1 0 0
0 0 0 0 0 0 0 0 0 0 0 0 0 0 0 0 0 0 0 0 0 0 0 0 0 0 0 0 0 0 0 0 0 0 0 0 0 0 0 0 0 0 -1
0 0 0 0 0 0 0 0 0 0 0 0 0 0 0 0 0 0 0 0 0 0 0 0 0 0 0 0 0 0 0 0 0 0 0 0 0 0 0 0 0 0 0
0 0 0 0 0 0 0 0 0 0 0 0 0 0 -7 -5 0 0 0 0 0 0 0 0 0 0 0 0 0 0 0 0 0 0 0 0 0 0 0 0 0 0 0
0 0 0 0 0 0 0 0 0 0 0 0 0 -54 -74 -24 0 0 0 0 0 0 0 0 0 0 0 0 0 0 0 0 0 0 0 0 0 0 0 0 0 0 0
0 0 0 0 0 0 0 0 0 0 0 0 0 0 0 0 0 0 0 0 0 0 0 0 0 0 0 0 0 0 0 0 0 0 0 0 0 0 0 0 0 0 0
0 0 0 0 0 0 0 0 0 -49 -53 -80 -7 0 0 0 0 0 0 0 0 0 0 0 0 0 0 0 0 0 0 0 0 0 0 0 0 0 0 0 0 0 0
0 0 -9 0 -11 0 -12 -48 -49 -60 0 -87 0 0 0 0 0 0 0 0 0 0 0 0 0 0 0 0 0 0 0 0 0 0 0 0 0 0 0 0 0 -1 0
-11 -14 -33 -31 -39 -40 -40 -16 -64 -32 0 0 0 0 0 0 0 0 0 0 0 0 0 0 0 0 0 0 0 0 0 0 0 0 0 0 0 0 0 0 0 0 0
0 -6 -33 -33 -8 0 -7 0 0 0 0 0 0 0 0 0 0 0 0 0 0 0 0 0 0 0 0 0 0 0 0 0 0 0 0 0 0 0 0 0 -1 0 0
0 0 0 0 0 0 0 0 0 0 0 0 0 0 0 0 0 0 0 0 0 0 0 0 0 0 0 0 0 0 0 0 0 0 0 0 0 0 0 0 0 0 0
0 0 0 0 0 0 0 0 0 0 0 0 0 0 0 0 0 0 0 0 0 0 0 0 0 0 0 0 0 0 0 0 0 0 0 0 0 0 0 0 0 0 0
0 0 0 0 0 0 0 0 0 0 0 0 0 0 0 0 0 0 0 0 0 0 0 0 0 0 0 0 0 0 0 0 0 0 0 0 0 0 0 0 0 0 0
0 0 0 0 0 0 0 0 0 0 0 0 0 0 0 0 0 0 0 0 0 0 0 0 0 0 0 0 0 0 0 0 0 0 0 0 0 0 0 0 0 0 0
0 0 0 0 0 0 0 0 0 0 0 0 0 0 0 0 0 0 0 0 0 0 0 0 0 0 0 0 0 0 0 0 0 0 0 0 0 0 0 0 0 0 0
Wind_Speed
6 6 7 7 8 10 10 10 12 12 13 14 15 16 16 16 17 17 18 19 19 19 20 22 23 23 24 25 26 27 28 29 29 30 31 32 34 36 37 38 38 39 40
3 4 5 5 7 8 9 9 10 12 13 13 14 14 15 15 15 16 17 18 18 18 19 21 22 23 24 25 26 26 27 27 29 30 31 33 34 35 36 38 39 40 41
1 3 4 6 6 9 11 12 12 13 13 14 16 13 14 14 15 16 16 17 17 19 20 21 22 23 23 24 24 25 26 26 28 29 31 32 33 34 36 37 39 39 40
4 5 5 9 12 13 12 12 12 13 14 14 15 14 14 13 13 14 14 15 16 17 19 20 21 22 23 23 24 25 25 26 27 29 30 32 33 34 35 37 39 39 40
6 6 9 11 11 10 10 11 12 14 14 14 15 13 15 12 11 12 13 14 15 16 17 18 20 21 22 22 23 24 24 25 27 28 29 30 32 34 35 36 37 38 39
8 10 11 11 11 11 11 12 13 14 15 15 16 17 18 16 14 13 13 13 14 15 16 17 18 20 21 21 22 22 23 24 25 26 28 29 30 32 34 36 37 38 39
11 11 11 12 12 11 11 12 14 14 14 15 17 20 20 18 16 15 13 13 13 14 15 16 17 18 19 21 21 21 21 23 24 25 26 28 30 31 33 35 37 37 38
12 13 12 10 10 12 13 14 15 17 16 12 17 19 22 21 18 15 14 14 14 14 15 16 17 17 18 18 19 19 20 20 21 23 25 26 28 30 32 35 36 36 37
13 12 12 13 13 13 14 15 15 15 16 15 14 18 23 24 20 18 15 15 14 14 15 15 16 16 16 16 17 17 18 18 20 21 23 25 27 29 32 33 34 36 37
14 14 15 15 15 15 16 15 15 15 15 16 17 15 20 19 22 25 19 16 15 15 15 15 14 14 14 14 14 15 15 16 18 20 23 24 26 29 31 32 33 35 36
16 16 15 15 15 16 16 16 16 15 15 17 17 20 20 21 20 23 27 22 20 18 16 16 14 13 13 13 13 14 15 15 17 19 21 23 26 27 30 31 32 34 35
19 17 17 17 18 17 17 18 18 17 17 18 18 18 19 21 21 22 25 26 25 23 18 16 16 15 13 12 12 11 12 14 16 17 20 22 24 26 29 30 31 32 33
19 19 19 19 19 19 20 20 20 19 20 20 20 21 22 22 22 22 24 27 28 25 22 18 17 15 14 13 13 12 13 14 14 16 18 21 23 25 27 29 30 31 32
21 21 21 21 22 22 22 22 23 23 23 23 23 24 24 23 22 21 23 25 31 27 24 25 18 16 15 14 13 13 13 14 14 15 17 20 22 24 26 28 29 29 30
23 24 22 22 23 24 25 25 26 26 25 25 25 25 25 24 23 24 24 23 25 33 30 23 22 16 15 12 12 11 12 13 14 15 17 19 20 23 24 26 27 28 29
23 24 25 26 26 26 26 27 27 27 28 28 27 28 27 26 27 26 26 26 26 27 33 23 18 17 12 11 11 11 12 12 13 16 16 17 20 21 22 24 25 26 27
27 27 27 26 26 25 25 26 26 27 29 30 28 30 30 29 29 28 28 27 27 25 29 24 19 17 12 12 10 10 13 12 13 16 15 16 19 19 20 22 23 24 26
26 26 27 27 26 25 24 25 27 26 29 30 30 30 31 31 32 32 30 31 28 29 27 26 20 23 20 10 11 10 12 12 12 15 15 17 17 19 20 20 21 22 23
27 26 26 26 26 25 25 25 26 28 28 29 29 30 30 30 31 30 30 30 29 27 27 30 28 21 21 11 13 12 13 13 13 15 15 16 18 19 20 18 19 19 21
26 26 26 25 24 24 25 26 26 28 29 29 30 30 30 30 30 30 30 30 29 26 26 27 23 22 19 16 14 15 17 10 13 14 15 17 21 20 17 17 17 18 19
30 29 27 26 26 26 28 28 28 28 30 29 29 30 30 31 30 30 29 28 28 28 25 22 27 16 20 19 16 17 17 12 14 15 17 20 20 19 18 17 17 17 18
25 24 25 25 26 25 26 25 26 27 27 29 30 29 29 29 28 27 27 25 23 23 23 22 21 19 24 19 16 16 13 16 21 18 22 25 20 20 19 17 17 17 17
24 24 24 25 26 26 27 28 28 27 29 30 31 30 30 28 25 24 23 21 19 18 20 19 21 23 20 17 15 13 15 18 20 22 23 29 22 22 20 19 18 18 16
24 25 26 27 27 28 29 28 28 27 27 27 27 25 25 24 22 20 21 20 19 17 17 17 18 19 16 15 14 13 15 17 21 26 24 34 26 26 23 21 18 16 15
24 25 25 27 28 28 29 28 27 27 27 27 26 24 22 20 18 15 16 16 15 17 14 13 16 17 17 15 11 14 18 17 24 27 23 29 28 27 25 22 18 15 14
22 23 23 25 25 26 27 25 23 23 24 24 23 23 20 19 15 12 12 11 12 11 8 15 13 14 12 12 11 13 14 19 24 29 24 27 27 25 28 22 20 16 15
Wind_Direction
346 353 354 9 16 357 10 14 15 20 20 18 19 22 23 23 23 23 23 22 23 28 26 25 23 22 22 21 22 21 21 21 22 22 21 21 18 16 16 14 16 13 12
1 17 2 18 11 6 6 10 12 8 9 15 18 21 22 21 22 22 23 21 23 27 24 21 20 20 21 20 20 20 21 22 21 21 21 17 17 16 16 14 14 12 10
328 337 340 341 345 338 338 343 346 349 358 1 3 15 16 17 17 18 19 20 21 18 18 18 18 18 18 20 20 20 20 21 19 19 17 18 16 16 14 14 13 11 10
282 299 309 312 314 318 327 335 343 348 349 354 358 7 9 13 14 14 15 15 14 15 13 15 14 15 17 17 18 18 18 17 19 17 17 15 15 14 13 12 13 12 11
274 286 296 303 311 317 323 329 335 338 342 347 351 358 359 4 8 7 5 7 8 9 10 11 11 11 12 13 15 15 16 16 15 14 15 14 15 13 12 11 12 12 10
265 282 291 295 302 309 315 322 324 329 334 338 342 346 349 351 355 355 358 359 1 2 3 5 6 6 8 9 11 12 14 14 14 13 12 13 13 13 12 10 10 9 10
268 275 283 290 296 299 304 311 318 320 323 332 335 339 343 346 345 346 349 350 351 354 356 357 358 359 1 3 6 9 11 12 12 10 12 10 11 11 10 9 9 10 9
265 268 275 277 283 293 297 302 310 315 316 320 325 330 330 333 334 336 338 339 338 342 343 347 350 353 356 359 2 5 8 9 9 10 9 10 10 10 8 7 8 9 9
258 256 264 276 280 287 292 295 300 305 308 311 312 324 329 326 332 333 328 330 330 330 331 335 339 344 348 352 356 359 4 6 7 8 8 7 7 8 7 7 8 8 8
260 263 268 273 279 284 287 288 293 298 302 303 312 300 320 325 326 328 330 323 322 321 319 322 325 332 337 343 348 353 359 4 4 4 4 3 5 4 5 5 7 6 6
265 265 263 269 271 277 280 283 288 288 291 296 300 313 311 318 319 319 320 323 317 313 311 312 312 317 324 330 338 344 350 355 355 359 1 1 0 3 3 5 6 6 6
274 264 266 266 270 273 276 280 282 284 284 287 291 295 302 307 307 313 315 318 316 316 307 305 305 305 309 317 324 330 340 344 349 354 356 358 0 1 1 3 4 5 7
271 266 265 267 268 272 277 281 282 281 282 283 283 287 292 293 300 305 309 316 316 317 317 306 299 300 300 305 313 319 328 335 340 348 353 354 356 358 359 1 3 4 6
271 276 272 272 273 276 277 280 282 284 285 282 281 286 290 292 291 292 299 307 315 315 316 316 300 297 297 300 305 312 319 328 333 341 345 348 353 356 357 358 360 2 4
278 280 277 276 277 280 280 280 281 282 283 282 283 284 286 289 290 287 288 294 299 309 308 311 312 295 295 292 293 302 310 318 329 335 340 345 350 352 354 356 358 359 2
281 281 281 281 282 282 282 282 283 284 285 285 285 285 285 287 287 288 289 288 291 294 303 310 305 310 288 291 297 302 308 314 322 327 332 338 343 347 350 352 355 356 359
283 283 282 283 282 282 283 284 284 285 286 287 286 288 285 286 287 287 287 287 286 283 292 309 313 309 295 289 291 295 307 313 319 321 329 331 336 339 343 347 351 352 355
286 285 285 284 283 283 283 284 286 287 288 289 288 288 288 291 289 290 286 284 281 279 291 287 316 306 305 290 294 297 304 308 313 320 324 326 331 332 335 339 343 347 350
288 289 288 286 284 283 284 284 285 288 288 287 288 289 289 291 290 293 281 293 294 300 294 299 313 310 307 301 299 304 300 307 313 316 317 321 324 326 328 332 335 339 344
291 292 293 290 288 287 288 289 289 290 291 292 294 295 295 292 294 296 298 301 300 292 292 297 303 299 305 305 299 291 301 304 314 320 320 321 321 321 321 324 327 332 336
297 299 298 300 301 300 300 299 298 300 301 301 303 303 305 302 301 305 299 297 302 290 293 295 292 304 304 303 285 297 299 311 320 321 321 324 321 318 316 317 320 324 328
308 308 307 308 307 308 311 311 310 309 308 307 308 309 308 310 308 308 308 305 300 292 290 292 289 293 301 293 294 297 304 318 321 332 329 327 324 317 315 312 313 314 318
315 315 316 315 314 315 316 316 315 313 313 313 313 313 314 314 314 313 312 308 303 297 292 289 290 297 297 287 289 295 306 316 319 331 331 328 327 319 319 314 309 307 307
316 316 316 316 316 317 318 317 317 317 316 317 318 318 318 318 319 317 317 315 310 305 298 294 293 297 295 294 285 297 308 316 322 326 332 327 329 325 326 324 316 309 307
318 320 320 321 321 322 322 322 321 321 321 322 323 322 322 323 322 320 320 318 317 313 308 305 310 310 305 303 297 308 310 316 320 326 327 326 328 327 327 325 322 314 311
323 326 328 329 329 328 331 332 332 331 330 331 335 336 334 333 333 331 329 327 324 321 313 312 314 310 303 301 299 301 308 313 322 325 326 324 326 328 328 332 329 320 315